www.pogodaiklimat.ru

Погода и климат >> Архив погоды >> Самоа >> Manono


ПОГОДА в Manono

  • Прогноз погоды в Manono
  • Монитор погоды в Manono
  • Климат города

АРХИВ ПОГОДЫ в Manono

Время (UTC), дата Ветер
(напр.,м/с)
 
Видим.   Явления Облачность Т
(С)
Тd
(С)
f
(%)
Тe
(С)
Тes
(С)
Комфортность P
(гПа)
Po
(гПа)
Тmin
(С)
Tmax
(С)
R
(мм)
R24
(мм)
S
(см)
00 12.12 СЗ 1 н/о н/о +23.5 +23.7 100 +32 +32 очень
душно
1006.2 1000.9 +23.3 18
03 12.12 СВ 1 н/о н/о +23.6 +23.8 100 +32 +32 очень
душно
1005.4 1000.1 1
06 12.12 В 1 н/о н/о +23.3 +23.5 100 +33 +33 очень
душно
1006.0 1000.7
09 12.12 Ю 1 н/о н/о +23.2 +23.4 100 +33 +33 очень
душно
1007.7 1002.4
12 12.12 штиль 0 н/о н/о +23.4 +23.6 100 +33 +33 очень
душно
1007.7 1002.4 +29.7
15 12.12 В 1 н/о н/о +23.9 +24.1 100 +33 +33 очень
душно
1006.7 1001.4
18 12.12 В 1 н/о н/о +23.7 +23.9 100 +32 +32 очень
душно
1008.0 1002.7
21 12.12 С 1 н/о н/о +26.6 +25.4 93 +39 +39 очень
душно
1008.7 1003.5 0.5
00 13.12 СВ 1 н/о н/о +26.0 +25.3 96 +38 +38 очень
душно
1006.5 1001.3 +22.7
03 13.12 СВ 1 н/о н/о +26.4 +25.2 93 +38 +38 очень
душно
1006.3 1001.1
06 13.12 ЮВ 1 н/о н/о +25.5 +24.8 96 +36 +36 очень
душно
1007.8 1002.6
09 13.12 ЮВ 1 н/о н/о +25.3 +25.0 98 +36 +36 очень
душно
1008.9 1003.7
12 13.12 штиль 0 н/о н/о +24.3 +24.3 100 +34 +34 очень
душно
1007.3 1002.1 +26.6
15 13.12 СВ 2 н/о н/о +24.5 +24.2 98 +34 +34 очень
душно
1005.7 1000.5
18 13.12 В 1 н/о н/о +25.0 +23.9 94 +34 +34 очень
душно
1008.6 1003.4
21 13.12 СВ 4 н/о н/о +30.6 +27.1 82 +48 +48 опасность
перегрева
1008.0 1002.9
00 14.12 СВ 2 н/о н/о +30.3 +26.8 82 +47 +47 опасность
перегрева
1005.1 1000.0 +22.9
03 14.12 СВ 2 н/о н/о +28.5 +25.9 86 +43 +43 опасность
перегрева
1003.6 998.4
06 14.12 СВ 2 н/о н/о +27.2 +25.2 89 +39 +39 очень
душно
1005.7 1000.5
09 14.12 В 1 н/о н/о +25.9 +24.1 90 +36 +36 очень
душно
1007.2 1002.0
12 14.12 СВ 2 н/о н/о +25.6 +24.5 94 +36 +36 очень
душно
1004.9 999.7 +30.6
15 14.12 В 2 н/о н/о +25.8 +24.9 95 +37 +37 очень
душно
1004.5 999.3
18 14.12 СВ 2 н/о н/о +27.1 +26.0 94 +41 +41 опасность
перегрева
1007.9 1002.7
21 14.12 СВ 2 н/о н/о +31.0 +27.1 80 +49 +49 опасность
перегрева
1008.0 1002.9
00 15.12 СВ 2 н/о н/о +31.6 +27.2 78 +50 +50 опасность
перегрева
1004.9 999.8 +23.8
03 15.12 СВ 1 н/о н/о +30.1 +26.6 82 +47 +47 опасность
перегрева
1002.3 997.2
06 15.12 СВ 2 н/о н/о +26.9 +25.8 94 +40 +40 очень
душно
1003.8 998.6
09 15.12 В 1 н/о н/о +26.6 +25.5 94 +39 +39 очень
душно
1005.3 1000.1
12 15.12 СВ 2 н/о н/о +26.0 +25.5 97 +38 +38 очень
душно
1003.7 998.5 +31.7
15 15.12 СВ 2 н/о н/о +25.9 +25.7 99 +38 +38 очень
душно
1002.7 997.5
18 15.12 СВ 2 н/о н/о +26.8 +26.4 98 +41 +41 опасность
перегрева
1005.0 999.8
21 15.12 СВ 2 н/о н/о +31.6 +27.9 81 +52 +52 опасность
перегрева
1006.8 1001.7
00 16.12 СВ 2 н/о н/о +32.6 +28.2 78 +54 +54 опасность
перегрева
1004.2 999.1 +25.5
03 16.12 С 1 н/о н/о +27.1 +27.3 100 +43 +43 опасность
перегрева
1002.2 997.0 5
06 16.12 С 1 н/о н/о +25.3 +25.5 100 +36 +36 очень
душно
1004.2 999.0
09 16.12 штиль 0 н/о н/о +24.5 +24.7 100 +34 +34 очень
душно
1005.4 1000.2
12 16.12 С 1 н/о н/о +24.6 +24.8 100 +34 +34 очень
душно
1005.1 999.9 +32.6
15 16.12 СЗ 1 н/о н/о +25.3 +25.5 100 +36 +36 очень
душно
1004.3 999.1
18 16.12 штиль 0 н/о н/о +26.2 +26.4 100 +39 +39 очень
душно
1008.1 1002.9
21 16.12 СВ 2 н/о н/о +30.9 +27.0 80 +49 +49 опасность
перегрева
1008.8 1003.7
00 17.12 СВ 1 н/о н/о +30.1 +27.5 86 +49 +49 опасность
перегрева
1004.6 999.5 +24.4
03 17.12 З 1 н/о н/о +28.5 +25.7 85 +42 +42 опасность
перегрева
1005.8 1000.6
06 17.12 штиль 0 н/о н/о +25.9 +25.5 98 +38 +38 очень
душно
1006.7 1001.5
09 17.12 В 2 н/о н/о +26.4 +25.5 95 +39 +39 очень
душно
1009.6 1004.4
12 17.12 СВ 2 н/о н/о +25.1 +25.3 100 +36 +36 очень
душно
1008.5 1003.3 +32.7 0.5
15 17.12 СВ 2 н/о н/о +25.6 +25.8 100 +37 +37 очень
душно
1007.3 1002.1
18 17.12 СВ 2 н/о н/о +26.0 +25.3 96 +38 +38 очень
душно
1009.0 1003.8
21 17.12 СВ 2 н/о н/о +29.4 +27.2 88 +47 +47 опасность
перегрева
1011.3 1006.1
00 18.12 С 1 н/о н/о +29.5 +27.5 89 +48 +48 опасность
перегрева
1007.5 1002.3 +24.3
03 18.12 СВ 2 н/о н/о +28.8 +26.4 87 +44 +44 опасность
перегрева
1006.7 1001.5
06 18.12 СВ 1 н/о н/о +26.7 +25.1 91 +38 +38 очень
душно
1007.9 1002.7
09 18.12 В 1 н/о н/о +26.0 +23.6 87 +35 +35 очень
душно
1010.5 1005.3
12 18.12 В 1 н/о н/о +25.5 +23.9 91 +35 +35 очень
душно
1009.4 1004.2 +32.8
15 18.12 В 1 н/о н/о +25.7 +23.5 88 +35 +35 очень
душно
1007.9 1002.7
18 18.12 В 2 н/о н/о +25.6 +25.4 99 +37 +37 очень
душно
1009.8 1004.6

 

Местоположение метеостанции Manono (Самоа): широта -13.85 долгота -172.11 высота над уровнем моря 46 м.

В архиве по умолчанию представлена погода в Manono за последнюю неделю. Архивные данные за месяц целиком и за предыдущие месяцы, начиная с января 2011 года, Вы можете получить, выбрав интересующий диапазон дат из раскрывающегося списка и нажав кнопку "Ввод!".


*Определитесь, кто Вы:
робот инопланетянин человек

Внимание! Время в таблицах - всемирное. Для получения местного времени необходимо прибавить поправку, которая в Manono равна 13 ч.

Смотрите также архив погоды в соседних городах и на ближайших метеорологических станциях:

Погода в Faleolo Int Airport (Самоа) (10 км)
Погода в Faleolo Int Airport (Американское Самоа) (13 км)
Погода в Faleolo Int East (Самоа) (13 км)
Погода в Maota Int Airport (Самоа) (20 км)
Погода в Togitogiga (Самоа) (42 км)
Погода в Apia (Американское Самоа) (45 км)
Погода в Le Piu Tai (Самоа) (53 км)
Погода в Le Mafa (Самоа) (56 км)
Погода в Lufi-Lufi (Самоа) (59 км)
Погода в Mount Talu (Самоа) (73 км)

Пояснения к столбцам:

Ветер - указаны скорость ветра в м/с - средняя за 10 мин, порывы в срок и между сроками (в фигурных скобках) и направление, откуда дует ветер: С - северный, СВ - северо-восточный, В - восточный, ЮВ - юго-восточный, Ю - южный, ЮЗ - юго-западный, З - западный, СЗ - северо-западный.
Видимость - горизонтальная дальность видимости в метрах или километрах. При видимости от 1 до 10 км при отсутствии осадков обычно наблюдается дымка, при ухудшении видимости до 1 км и менее - туман. В сухую погоду видимость может ухудшаться дымом, пылью или мглою.
Явления - указаны атмосферные явления, наблюдавшиеся в срок или в последний час перед сроком; фигурными скобками обозначены явления, наблюдавшиеся между сроками (за 1-3 часа до срока); квадратными скобками обозначены град или гололедные отложения с указанием их диаметра в мм.
Облачность - указаны через наклонную черту общая и нижняя облачность в баллах и высота нижней границы облаков в метрах; квадратными скобками обозначены формы облаков: Ci - перистые, Cs - перисто-слоистые, Cc - перисто-кучевые, Ac - высококучевые, As - высокослоистые, Sc - слоисто-кучевые, Ns - слоисто-дождевые, Cu - кучевые, Cb - кучево-дождевые. Подробнее классификацию облаков см. в Атласе облаков (PDF).
T - Температура воздуха - температура, измеренная на высоте 2 м над землей.
Td - Температура точки росы - температура, при понижении до которой содержащийся в воздухе водяной пар достигнет насыщения.
f - Относительная влажность воздуха - влажноcть воздуха, измеренная на высоте 2 м над землей.
Te - Эффективная температура - температура, которую ощущает одетый по сезону человек в тени. Характеристика душности погоды. При расчете учитывается влияние влажности воздуха и скорости ветра на теплоощущения человека.
Tes - Эффективная температура на солнце - температура, которую ощущает человек, с поправкой на солнечный нагрев. Характеристика знойности погоды. Зависит от высоты солнца над горизонтом, облачности и скорости ветра. Ночью, в пасмурную погоду, а также при ветре 12 м/с и более поправка равна нулю.
P - Атмосферное давление - приведенное к уровню моря атмосферное давление.
Po - Атмосферное давление - измеренное на уровне метеостанции атмосферное давление.
Tmin - Минимальная температура - минимум температуры воздуха на высоте 2 м над землей.
Tmax - Максимальная температура - максимум температуры воздуха на высоте 2 м над землей.
R - Количество осадков - Количество выпавших осадков за период времени, мм. При наведении курсора мыши на число - период времени, за который выпало указанное количество осадков.
R24 - Количество осадков - Количество выпавших осадков за 24 часа, мм.
S - Снежный покров - Высота снежного покрова, см. При наведении курсора мыши на число - состояние снежного покрова и степень покрытия местности в баллах.